sat.trackr.live / text

‹ back to catalog

STARLINK-5002

NORAD 53922 · 2022-119AN

PAYLOAD ACTIVE UNKNOWN

§ Identity

Operator
Country
US
Launch date
2022-09-24
Launch site
AFETR
Launch vehicle
Mass (kg)
RCS (m²)

Purposes: comms

External: N2YO · Heavens-Above · Gunter

§ Orbital elements

Epoch: 2026-05-24T20:01:11.400672Z

Period
95.44 min
Inclination
53.2129°
Eccentricity
0.0001492
Mean motion
15.08841341 rev/d
Perigee alt
538.7 km
Apogee alt
540.8 km
Semi-major
6,917.9 km
B*
5.5980e-5
RAAN
332.0439°
Arg perigee
91.8689°
Mean anomaly
268.2474°
Rev number
20,332

§ Raw data

STARLINK-50021 53922U 22119AN  26144.83415973  .00000603  00000+0  55980-4 0  99922 53922  53.2129 332.0439 0001492  91.8689 268.2474 15.08841341203324

JSON: /api/v1/satellites/53922 · /tle

For live sub-satellite position, see the globe view (requires WebGL).

§ Visibility from observer

Set your observer location to see the next 7 days of passes ≥ 10°. The values pass through the URL so the page stays shareable.

No JS? Fill the form by hand. The geolocation button needs JavaScript.